Weather in Kruglikovo

Russia / Novosibirsk Oblast     55°50′17″N   83°51′13″E
temp.,
°C
wind,
m/s
gust,
m/s
humid.,
%
clouds,
%
prec.,
mm/h
press.,
hPa
HPBL,
m
7 march, sun
sun701:00−2wsw61295100 1.6 1008903
04:00−7wsw5138654 0.8 1009567
07:00−10sw5129159 0.8 1012482
10:00−10wsw5109159 0.0 1014423
13:00−6wsw598435 0.0 1017720
16:00−5wsw588260 0.0 1018997
19:00−8sw4108780 0.0 1020324
22:00−12ssw369130 0.0 1021107
8 march, mon
mon801:00−13s238839 0.0 102162
04:00−11sse3783100 0.0 1019156
07:00−8sse51391100 0.0 1016390
10:00−4s61489100 0.0 1012606
13:00−1s71484100 0.0 1009691
16:000ssw71383100 0.0 1006824
19:00−1ssw71681100 0.0 1004940
22:00−2sw71493100 0.4 10051059
9 march, tue
tue901:00−5w61189100 0.8 1010765
04:00−11wsw4109385 0.1 1016369
07:00−13sw5119292 0.1 1020412
10:00−13sw6128994 0.0 1022457
13:00−9sw6128191 0.0 1022695
16:00−6sw7127979 0.0 10221020
19:00−8ssw5128281 0.0 1022672
22:00−10ssw5128789 0.0 1022441
10 march, wed
wed1001:00−11ssw4119192 0.0 1022334
04:00−14ssw389476 0.0 1021188
07:00−15s389279 0.0 1020173
10:00−10s489299 0.0 1017303
13:00−4ssw4892100 0.1 1014603
16:00−1ssw4890100 0.1 1011844
19:000s41088100 0.1 1008681
22:00−1sse51488100 0.0 1004583
11 march, thu
thu1101:00+1s71678100 0.2 998919
04:00+1ssw81598100 1.1 995930
07:00−2sw10168498 1.9 9991084
10:00−7sw81586100 0.1 1005912
13:00−5sw81487100 0.1 1009975
16:00−4sw91681100 0.1 10111419
19:00−7sw71583100 0.3 10131200
22:00−9sw81587100 0.1 10161060